Radiation Dose at Monitoring Post of Fukushima Daini Nuclear Power Station
Date,Time,MP-1(microSv/h),MP-2(microSv/h),MP-3(microSv/h),MP-4(microSv/h),MP-5(microSv/h),MP-6(microSv/h),MP-7(microSv/h),Wind Direction,Wind Velocity(m/s),Rain
2017/08/12,00:00,0.346,0.212,0.350,0.325,0.317,0.170,0.107,north,6.3,No
2017/08/12,00:10,0.348,0.212,0.347,0.322,0.315,0.168,0.108,north-northwest,6.6,No
2017/08/12,00:20,0.346,0.213,0.344,0.323,0.313,0.169,0.107,north-northwest,6.2,No
2017/08/12,00:30,0.346,0.211,0.348,0.325,0.316,0.169,0.108,north,6.2,No
2017/08/12,00:40,0.346,0.213,0.345,0.321,0.313,0.169,0.107,north-northwest,5.9,No
2017/08/12,00:50,0.343,0.211,0.348,0.324,0.316,0.169,0.107,north-northwest,6.7,No
2017/08/12,01:00,0.349,0.211,0.346,0.322,0.315,0.170,0.108,north-northwest,7.0,Yes
2017/08/12,01:10,0.344,0.213,0.345,0.321,0.313,0.170,0.107,north,6.2,Yes
2017/08/12,01:20,0.347,0.211,0.348,0.323,0.317,0.169,0.109,north-northwest,6.0,Yes
2017/08/12,01:30,0.348,0.213,0.346,0.323,0.313,0.168,0.109,north-northwest,6.4,Yes
2017/08/12,01:40,0.344,0.212,0.347,0.325,0.318,0.170,0.109,north-northwest,7.0,Yes
2017/08/12,01:50,0.349,0.213,0.347,0.324,0.316,0.170,0.108,north-northwest,6.7,Yes
2017/08/12,02:00,0.346,0.212,0.345,0.322,0.315,0.170,0.108,north-northwest,6.5,Yes
2017/08/12,02:10,0.347,0.212,0.349,0.325,0.317,0.171,0.109,north,5.9,Yes
2017/08/12,02:20,0.350,0.216,0.347,0.324,0.316,0.173,0.111,north-northwest,6.0,Yes
2017/08/12,02:30,0.350,0.217,0.354,0.330,0.322,0.178,0.113,north,6.4,Yes
2017/08/12,02:40,0.352,0.219,0.352,0.328,0.322,0.179,0.116,north-northwest,6.3,Yes
2017/08/12,02:50,0.351,0.218,0.352,0.328,0.322,0.177,0.115,north,6.7,Yes
2017/08/12,03:00,0.352,0.219,0.354,0.329,0.323,0.178,0.114,north-northwest,6.5,Yes
2017/08/12,03:10,0.353,0.217,0.348,0.326,0.318,0.176,0.114,north-northwest,6.6,Yes
2017/08/12,03:20,0.348,0.216,0.352,0.328,0.322,0.175,0.113,north-northwest,7.0,Yes
2017/08/12,03:30,0.350,0.215,0.349,0.324,0.318,0.175,0.113,north,7.4,Yes
2017/08/12,03:40,0.348,0.214,0.350,0.326,0.318,0.172,0.112,north-northwest,7.0,Yes
2017/08/12,03:50,0.349,0.214,0.349,0.325,0.319,0.172,0.111,north-northwest,8.4,Yes
2017/08/12,04:00,0.349,0.213,0.346,0.323,0.314,0.172,0.110,north-northwest,8.3,Yes
2017/08/12,04:10,0.348,0.217,0.348,0.327,0.319,0.172,0.111,north,8.4,Yes
2017/08/12,04:20,0.352,0.218,0.347,0.326,0.319,0.177,0.112,north,8.6,Yes
2017/08/12,04:30,0.350,0.217,0.352,0.327,0.321,0.174,0.113,north-northwest,8.3,Yes
2017/08/12,04:40,0.352,0.219,0.349,0.325,0.320,0.174,0.114,north-northwest,8.4,Yes
2017/08/12,04:50,0.350,0.218,0.352,0.327,0.318,0.175,0.112,north,8.9,Yes
2017/08/12,05:00,0.347,0.218,0.349,0.327,0.321,0.173,0.113,north-northwest,7.7,Yes
2017/08/12,05:10,0.349,0.215,0.348,0.324,0.318,0.175,0.113,north-northwest,8.4,Yes
2017/08/12,05:20,0.346,0.216,0.350,0.326,0.318,0.174,0.113,north-northwest,8.3,Yes
2017/08/12,05:30,0.349,0.214,0.346,0.323,0.318,0.173,0.112,north-northwest,8.4,Yes
2017/08/12,05:40,0.346,0.215,0.348,0.325,0.316,0.173,0.111,north-northwest,7.9,Yes
2017/08/12,05:50,0.346,0.212,0.345,0.322,0.318,0.172,0.111,north-northwest,7.6,Yes
2017/08/12,06:00,0.348,0.212,0.347,0.322,0.314,0.172,0.110,north-northwest,7.6,Yes
2017/08/12,06:10,0.344,0.213,0.347,0.325,0.317,0.171,0.110,north-northwest,7.8,Yes
2017/08/12,06:20,0.347,0.212,0.345,0.320,0.317,0.171,0.110,north-northwest,7.6,Yes
2017/08/12,06:30,0.346,0.214,0.346,0.322,0.314,0.171,0.108,north,7.5,Yes
2017/08/12,06:40,0.347,0.212,0.344,0.321,0.317,0.169,0.109,north,7.0,Yes
2017/08/12,06:50,0.346,0.211,0.347,0.321,0.314,0.170,0.108,north-northwest,6.8,Yes
2017/08/12,07:00,0.343,0.212,0.346,0.324,0.316,0.170,0.109,north-northwest,5.9,Yes
2017/08/12,07:10,0.346,0.212,0.344,0.320,0.316,0.169,0.108,north-northwest,5.9,Yes
2017/08/12,07:20,0.346,0.213,0.348,0.323,0.313,0.171,0.108,north-northwest,6.1,Yes
2017/08/12,07:30,0.344,0.213,0.345,0.324,0.316,0.172,0.110,north-northwest,6.2,Yes
2017/08/12,07:40,0.347,0.213,0.345,0.321,0.316,0.171,0.110,north-northwest,6.3,Yes
2017/08/12,07:50,0.345,0.215,0.346,0.324,0.314,0.170,0.108,north-northwest,6.6,Yes
2017/08/12,08:00,0.346,0.213,0.343,0.322,0.318,0.172,0.110,north-northwest,6.4,Yes
2017/08/12,08:10,0.347,0.214,0.347,0.322,0.317,0.170,0.109,north-northwest,6.5,Yes
2017/08/12,08:20,0.345,0.214,0.345,0.324,0.315,0.173,0.110,north-northwest,6.4,Yes
2017/08/12,08:30,0.348,0.215,0.346,0.323,0.321,0.175,0.113,north-northwest,6.9,Yes
2017/08/12,08:40,0.351,0.219,0.350,0.326,0.319,0.176,0.114,north-northwest,6.4,Yes
2017/08/12,08:50,0.350,0.219,0.348,0.327,0.322,0.179,0.118,north-northwest,6.8,Yes
2017/08/12,09:00,0.353,0.218,0.351,0.324,0.325,0.179,0.119,north,7.5,Yes
2017/08/12,09:10,0.349,0.220,0.350,0.327,0.321,0.178,0.117,north-northwest,8.3,Yes
2017/08/12,09:20,0.349,0.219,0.347,0.326,0.323,0.179,0.117,north-northwest,7.8,Yes
2017/08/12,09:30,0.352,0.219,0.350,0.324,0.323,0.179,0.117,north-northwest,8.1,Yes
2017/08/12,09:40,0.348,0.218,0.347,0.326,0.320,0.177,0.115,north,7.7,Yes
2017/08/12,09:50,0.351,0.217,0.345,0.322,0.324,0.178,0.115,north,7.2,Yes
2017/08/12,10:00,0.350,0.217,0.347,0.323,0.319,0.174,0.114,north-northwest,6.7,Yes
2017/08/12,10:10,0.344,0.216,0.345,0.324,0.315,0.172,0.112,north-northwest,7.0,Yes
2017/08/12,10:20,0.349,0.213,0.344,0.321,0.320,0.174,0.113,north-northwest,8.3,Yes
2017/08/12,10:30,0.345,0.214,0.347,0.321,0.319,0.172,0.111,north,7.3,Yes
2017/08/12,10:40,0.343,0.213,0.344,0.322,0.314,0.171,0.110,north-northwest,6.4,No
2017/08/12,10:50,0.345,0.211,0.343,0.320,0.316,0.171,0.110,north,7.5,No
2017/08/12,11:00,0.346,0.213,0.348,0.317,0.317,0.170,0.109,north-northwest,7.3,No
2017/08/12,11:10,0.342,0.212,0.346,0.322,0.315,0.170,0.109,north,7.2,No
2017/08/12,11:20,0.340,0.211,0.342,0.320,0.313,0.168,0.107,north,8.5,No
2017/08/12,11:30,0.346,0.209,0.343,0.317,0.312,0.169,0.106,north,8.4,No
2017/08/12,11:40,0.346,0.210,0.345,0.318,0.317,0.168,0.107,north,8.1,No
2017/08/12,11:50,0.342,0.212,0.343,0.321,0.313,0.170,0.107,north,6.9,No
2017/08/12,12:00,0.342,0.212,0.341,0.318,0.311,0.168,0.106,north,8.6,Yes
2017/08/12,12:10,0.345,0.209,0.347,0.317,0.312,0.167,0.107,north,7.9,Yes
2017/08/12,12:20,0.344,0.208,0.345,0.320,0.316,0.167,0.106,north,7.9,Yes
2017/08/12,12:30,0.341,0.211,0.342,0.320,0.315,0.167,0.105,north,9.1,Yes
2017/08/12,12:40,0.343,0.211,0.341,0.319,0.313,0.168,0.105,north,9.5,No
2017/08/12,12:50,0.344,0.209,0.345,0.315,0.310,0.169,0.106,north,7.7,No
2017/08/12,13:00,0.343,0.209,0.345,0.320,0.313,0.168,0.107,north,6.7,No
2017/08/12,13:10,0.343,0.211,0.343,0.322,0.316,0.167,0.106,north,8.4,No
2017/08/12,13:20,0.343,0.211,0.340,0.320,0.315,0.167,0.106,north,6.7,No
2017/08/12,13:30,0.346,0.211,0.345,0.318,0.311,0.168,0.106,north,6.7,No
2017/08/12,13:40,0.343,0.209,0.347,0.317,0.311,0.168,0.106,north,6.9,No
2017/08/12,13:50,0.342,0.210,0.343,0.321,0.314,0.168,0.106,north-northeast,7.9,No
2017/08/12,14:00,0.347,0.212,0.340,0.322,0.316,0.168,0.106,north,7.8,No
2017/08/12,14:10,0.345,0.211,0.347,0.320,0.314,0.167,0.105,north,8.6,No
2017/08/12,14:20,0.343,0.210,0.345,0.318,0.311,0.167,0.105,north,7.8,No
2017/08/12,14:30,0.343,0.212,0.342,0.322,0.317,0.169,0.107,north,6.7,No
2017/08/12,14:40,0.347,0.211,0.345,0.321,0.316,0.169,0.107,north,6.9,No
2017/08/12,14:50,0.343,0.208,0.347,0.319,0.312,0.168,0.106,north,7.0,No
2017/08/12,15:00,0.341,0.210,0.346,0.319,0.311,0.167,0.106,north,6.5,No
2017/08/12,15:10,0.345,0.212,0.343,0.323,0.312,0.168,0.105,north,6.7,No
2017/08/12,15:20,0.346,0.211,0.344,0.321,0.315,0.168,0.106,north,7.7,No
2017/08/12,15:30,0.344,0.211,0.348,0.318,0.315,0.168,0.106,north,6.4,No
2017/08/12,15:40,0.342,0.209,0.346,0.319,0.311,0.168,0.106,north-northeast,6.5,No
2017/08/12,15:50,0.346,0.210,0.343,0.322,0.312,0.168,0.106,north,7.2,No
2017/08/12,16:00,0.346,0.212,0.340,0.322,0.310,0.168,0.106,north,8.1,No
2017/08/12,16:10,0.344,0.212,0.347,0.320,0.314,0.168,0.107,north-northwest,6.6,No
2017/08/12,16:20,0.342,0.210,0.347,0.319,0.317,0.168,0.107,north,8.1,No
2017/08/12,16:30,0.348,0.210,0.343,0.321,0.315,0.169,0.107,north,7.3,No
2017/08/12,16:40,0.346,0.212,0.345,0.323,0.312,0.170,0.106,north,6.4,No
2017/08/12,16:50,0.343,0.211,0.347,0.321,0.315,0.167,0.107,north,7.3,No
2017/08/12,17:00,0.345,0.210,0.344,0.319,0.317,0.168,0.107,north,7.3,No
2017/08/12,17:10,0.346,0.213,0.342,0.324,0.313,0.169,0.106,north,6.9,No
2017/08/12,17:20,0.344,0.211,0.348,0.323,0.312,0.169,0.106,north,6.1,No
2017/08/12,17:30,0.344,0.211,0.346,0.319,0.317,0.168,0.107,north,7.0,No
2017/08/12,17:40,0.346,0.211,0.343,0.322,0.314,0.168,0.107,north,7.5,No
2017/08/12,17:50,0.345,0.212,0.348,0.323,0.311,0.169,0.106,north,8.1,No
2017/08/12,18:00,0.344,0.210,0.347,0.322,0.315,0.167,0.107,north,6.4,No
2017/08/12,18:10,0.348,0.212,0.344,0.319,0.316,0.168,0.106,north,7.9,No
2017/08/12,18:20,0.344,0.212,0.346,0.325,0.313,0.170,0.107,north,8.1,No
2017/08/12,18:30,0.344,0.211,0.347,0.322,0.315,0.169,0.108,north,7.3,No
2017/08/12,18:40,0.347,0.211,0.344,0.320,0.316,0.168,0.106,north,8.3,No
2017/08/12,18:50,0.344,0.212,0.345,0.324,0.312,0.169,0.105,north,8.4,No
2017/08/12,19:00,0.343,0.209,0.348,0.322,0.316,0.169,0.107,north,7.4,No
2017/08/12,19:10,0.348,0.213,0.345,0.319,0.315,0.167,0.106,north-northwest,7.4,No
2017/08/12,19:20,0.345,0.212,0.345,0.323,0.314,0.169,0.106,north,6.8,No
2017/08/12,19:30,0.343,0.210,0.348,0.321,0.315,0.168,0.106,north,8.8,No
2017/08/12,19:40,0.347,0.212,0.343,0.320,0.314,0.167,0.107,north,8.8,No
2017/08/12,19:50,0.345,0.212,0.347,0.324,0.313,0.169,0.106,north,9.5,No
2017/08/12,20:00,0.344,0.210,0.346,0.322,0.318,0.169,0.107,north-northwest,8.5,No
2017/08/12,20:10,0.348,0.212,0.344,0.319,0.314,0.168,0.106,north-northwest,9.2,No
2017/08/12,20:20,0.344,0.211,0.349,0.322,0.315,0.169,0.106,north,9.5,No
2017/08/12,20:30,0.344,0.212,0.346,0.320,0.318,0.169,0.107,north,8.9,No
2017/08/12,20:40,0.348,0.212,0.346,0.323,0.312,0.168,0.107,north,8.6,No
2017/08/12,20:50,0.344,0.210,0.347,0.323,0.317,0.170,0.107,north,8.9,No
2017/08/12,21:00,0.347,0.214,0.345,0.321,0.316,0.168,0.107,north,8.2,Yes
2017/08/12,21:10,0.347,0.212,0.346,0.322,0.313,0.168,0.107,north,9.4,No
2017/08/12,21:20,0.344,0.211,0.348,0.323,0.317,0.169,0.108,north,9.8,No
2017/08/12,21:30,0.346,0.212,0.343,0.319,0.315,0.170,0.107,north,7.8,No
2017/08/12,21:40,0.347,0.211,0.345,0.324,0.313,0.168,0.106,north,9.5,No
2017/08/12,21:50,0.343,0.212,0.347,0.324,0.317,0.170,0.108,north,8.3,No
2017/08/12,22:00,0.346,0.213,0.343,0.320,0.313,0.169,0.108,north,8.9,No
2017/08/12,22:10,0.348,0.209,0.347,0.325,0.314,0.169,0.106,north,9.2,No
2017/08/12,22:20,0.344,0.213,0.348,0.323,0.317,0.169,0.108,north,8.9,No
2017/08/12,22:30,0.347,0.212,0.345,0.319,0.314,0.170,0.106,north,9.7,Yes
2017/08/12,22:40,0.347,0.211,0.346,0.323,0.316,0.168,0.107,north,8.3,Yes
2017/08/12,22:50,0.344,0.213,0.346,0.323,0.316,0.170,0.107,north,9.2,Yes
2017/08/12,23:00,0.347,0.211,0.346,0.321,0.314,0.170,0.107,north,9.4,Yes
2017/08/12,23:10,0.345,0.212,0.349,0.325,0.316,0.169,0.107,north,8.9,Yes
2017/08/12,23:20,0.344,0.211,0.346,0.324,0.314,0.171,0.107,north,7.8,Yes
2017/08/12,23:30,0.347,0.211,0.346,0.321,0.315,0.170,0.107,north-northwest,8.4,Yes
2017/08/12,23:40,0.345,0.212,0.349,0.326,0.316,0.167,0.108,north,7.9,Yes
2017/08/12,23:50,0.346,0.211,0.344,0.321,0.313,0.169,0.107,north-northwest,7.5,Yes
